SCP
0 0 0 0 0 0 0 0 0 0 0 0 0 0 0 0 0 0 0 0 0 0 0 0 0 0 -1514 -3736 -2967 -783 -38 0 0 0 0 0 0 0 -389 -10517 -31815 -44276 -44258
0 0 0 0 0 0 0 0 0 0 0 0 0 0 0 0 0 0 0 0 0 0 0 0 0 0 -671 -1431 -1210 -341 -17 0 0 0 0 0 0 0 -172 -4600 -12723 -19088 -21124
0 0 0 0 0 0 0 0 0 0 0 0 0 0 0 0 0 0 0 0 0 0 0 0 0 0 0 0 0 0 0 0 0 0 0 0 0 0 0 0 -66 -1119 -2367
0 0 0 0 0 0 0 0 0 0 0 0 0 0 0 0 0 0 0 0 0 0 0 0 0 0 0 0 0 0 0 0 0 0 0 0 0 0 0 0 0 0 0
0 0 0 0 0 0 0 0 0 0 0 0 0 0 0 0 0 0 0 0 0 0 0 0 0 0 0 0 0 0 0 0 0 0 0 0 0 0 -121 -254 -254 -128 -61
0 0 0 0 0 0 0 0 0 0 0 0 0 0 0 0 0 0 0 0 0 0 0 0 0 0 0 0 0 0 0 0 0 0 0 0 0 -200 -1131 -2454 -3075 -3149 -3144
0 0 0 0 0 0 0 0 0 0 0 0 0 0 0 0 0 0 0 0 0 0 0 0 0 0 0 0 0 0 0 0 0 0 0 -14 -42 -407 -1866 -3942 -5150 -5513 -5938
0 0 0 0 0 0 0 0 0 0 0 0 0 0 0 0 0 0 0 0 0 0 0 0 0 0 0 0 0 0 0 0 0 0 -565 -2103 -4358 -6877 -9584 -12125 -14153 -15019 -14776
0 0 0 0 0 0 0 0 0 0 0 0 0 0 0 0 0 0 0 0 0 0 0 0 0 0 0 0 0 0 0 0 0 -116 -2060 -7503 -14262 -20029 -25540 -31149 -35767 -38519 -39297
0 0 0 0 0 0 0 0 0 0 0 0 0 0 0 0 0 0 0 0 0 0 0 0 0 0 0 0 0 0 0 0 -91 -905 -5236 -14224 -23387 -29479 -38581 -50608 -58268 -60856 -62634
0 0 0 0 0 0 0 0 0 0 0 0 0 0 0 0 0 0 0 0 0 0 0 0 0 0 0 0 0 0 0 -455 -1681 -4419 -11257 -21200 -29350 -34962 -44706 -58469 -66818 -67904 -67128
0 0 0 0 0 0 0 0 0 0 0 0 0 0 0 0 0 0 0 0 0 0 0 0 0 0 0 0 0 0 -300 -1754 -4663 -8848 -15901 -23724 -29294 -33423 -37953 -45216 -53248 -56171 -56022
0 0 0 0 0 0 0 0 0 0 0 0 0 0 0 0 0 0 0 0 0 0 0 0 0 0 0 -210 -1350 -2111 -2633 -5310 -11306 -18084 -26684 -36107 -42935 -44173 -43653 -45593 -50142 -53620 -54655
0 0 0 0 0 0 0 0 0 0 0 0 0 0 0 0 0 0 0 0 0 0 0 0 0 0 0 -350 -3397 -7197 -12698 -28348 -49193 -59557 -60772 -64708 -67304 -63346 -59245 -59281 -60852 -62242 -63499
0 0 0 0 0 0 0 0 0 0 0 0 0 0 0 0 0 0 0 0 0 0 0 0 0 0 -79 -1949 -11174 -24687 -49789 -87867 -119606 -120127 -104487 -85934 -69832 -55207 -45446 -43332 -46346 -50438 -53322
0 0 0 0 0 0 0 0 0 0 0 0 0 0 0 0 0 0 0 0 0 0 0 0 0 0 -132 -2971 -15550 -34336 -66535 -107631 -122585 -114521 -96544 -69841 -45235 -28011 -18091 -15731 -19473 -25504 -29945
0 0 0 0 0 0 0 0 0 0 0 0 0 0 0 0 0 0 0 0 0 0 0 0 0 0 -79 -1788 -8317 -17245 -36108 -54149 -57743 -50447 -48012 -42631 -31914 -20022 -12637 -11539 -14795 -19846 -22947
0 0 0 0 0 0 0 0 0 0 0 0 0 0 0 0 0 0 0 0 0 0 -171 -284 -171 0 0 -29 -196 -1447 -7720 -16556 -16580 -14472 -22444 -33337 -34590 -28778 -23253 -21332 -24280 -30520 -34578
0 0 0 0 0 0 0 0 0 0 0 0 0 0 0 0 0 0 0 0 0 0 -284 -569 -284 0 0 -15 -156 -2060 -7423 -10811 -9985 -10727 -17959 -25570 -29427 -32554 -32644 -29678 -31071 -36307 -39751
0 0 0 0 0 0 0 0 0 0 0 0 0 0 0 0 0 -114 -190 -114 0 0 -171 -284 -171 0 0 -24 -127 -1225 -2291 -2120 -1967 -3849 -6316 -8328 -11411 -16551 -19784 -20309 -21472 -24694 -26516
0 0 0 0 0 0 0 0 0 0 0 0 0 0 0 0 0 -285 -619 -915 -1774 -2013 -987 -72 0 0 0 -15 -24 -360 -917 -1120 -1234 -1461 -1323 -1321 -1553 -1973 -3119 -5201 -8219 -13282 -17987
0 0 0 0 0 0 0 0 0 0 0 0 0 0 0 0 0 -273 -787 -2124 -4932 -5619 -2557 -224 0 0 0 -155 -389 -1067 -2381 -3002 -2604 -2419 -2397 -1774 -957 -435 -416 -1652 -5734 -14060 -21166
0 0 0 0 0 0 0 0 0 0 0 0 0 0 0 0 -124 -704 -1657 -3104 -5274 -5372 -2499 -246 -18 -150 -386 -716 -1097 -1523 -2356 -3178 -2960 -2548 -2685 -2219 -1171 -547 -230 -1198 -5956 -14960 -22077
0 0 0 0 0 0 0 0 0 0 0 0 0 0 0 -297 -5149 -11559 -11386 -5462 -2335 -1783 -873 -616 -1202 -1428 -1325 -1507 -1618 -1465 -1325 -1520 -1468 -1278 -1336 -1094 -649 -439 -422 -1170 -4332 -10672 -15829
0 0 0 0 0 0 0 0 0 0 0 0 0 -136 -1166 -5020 -18484 -31362 -23472 -6458 -380 0 -34 -909 -2289 -2274 -1481 -1333 -1474 -1099 -563 -346 -185 -98 -114 -68 -215 -471 -568 -660 -1568 -4372 -7205
0 0 0 0 0 0 0 0 0 0 0 0 0 -307 -2735 -11329 -31308 -41875 -25674 -5581 0 0 -78 -848 -1665 -1582 -834 -671 -803 -601 -237 -97 -58 0 0 0 -357 -752 -570 -346 -709 -1898 -3007
Wind_Speed
3 3 4 4 4 4 3 3 4 4 5 5 5 5 6 6 5 4 4 11 15 14 14 15 14 14 13 13 14 13 12 12 11 10 9 8 7 8 9 10 13 15 17
5 5 5 5 4 3 4 4 4 4 4 4 5 5 4 5 4 5 5 7 14 16 16 16 16 16 15 15 14 12 12 11 11 10 8 8 8 8 9 9 9 10 11
6 6 6 4 3 3 4 4 3 3 5 5 6 5 4 4 4 5 5 4 7 12 16 17 17 16 16 16 15 15 13 13 11 10 9 9 10 10 9 9 10 10 11
7 6 5 4 3 4 4 4 4 4 5 6 6 4 3 3 3 4 4 5 4 4 9 15 16 16 16 16 16 16 14 14 13 12 10 10 11 10 10 10 11 12 13
8 7 6 4 5 5 5 5 4 4 4 7 8 6 4 2 2 3 5 5 4 4 3 7 11 12 13 14 16 16 15 15 15 12 11 12 13 13 13 13 14 14 14
8 7 6 5 5 5 5 5 4 4 2 4 7 7 4 2 1 3 4 3 2 2 2 2 2 3 9 11 14 17 15 17 16 12 13 14 14 14 15 16 16 17 16
7 7 5 5 6 5 5 5 3 5 4 5 5 7 5 3 3 3 2 1 1 2 2 2 3 3 2 6 11 15 15 16 15 13 16 16 15 15 16 18 19 19 20
7 7 6 5 5 4 6 6 5 3 3 5 4 3 6 7 6 7 4 2 3 4 3 4 5 5 3 2 7 13 14 14 13 16 17 17 16 18 20 21 23 23 23
7 7 6 6 5 5 5 4 3 4 3 4 4 4 4 5 6 6 4 4 6 4 4 5 6 6 5 4 5 6 10 13 14 16 18 19 20 22 23 25 26 26 26
6 6 6 7 6 5 5 3 3 2 3 2 3 3 1 3 4 7 5 5 4 5 5 6 5 7 7 5 6 8 12 12 15 17 20 22 24 26 28 28 28 27 27
5 6 7 7 6 5 4 4 4 3 2 1 1 2 2 2 1 3 8 8 9 7 6 5 6 7 9 6 4 6 10 13 17 19 22 25 28 29 30 29 29 29 29
4 6 6 6 5 5 4 3 3 2 2 1 0 1 1 1 2 3 7 12 13 8 7 7 7 7 6 5 6 9 12 15 19 23 26 28 29 30 30 30 31 31 31
3 4 5 5 4 4 3 3 2 2 2 1 1 1 1 2 2 2 6 10 13 10 6 5 5 4 6 4 6 11 15 21 24 26 28 29 30 30 30 30 32 33 34
4 4 5 6 4 4 3 2 2 2 1 2 2 2 2 2 2 2 3 8 14 10 7 6 4 5 6 6 10 18 12 20 25 27 29 30 31 30 31 33 34 35 36
5 6 6 5 4 3 3 3 2 3 2 2 3 2 2 3 3 3 4 5 8 12 15 8 5 7 5 6 11 11 7 15 24 28 30 30 29 32 35 36 36 37 38
6 6 6 5 4 3 3 3 3 3 3 3 2 3 4 4 4 4 4 5 6 10 15 13 12 9 8 8 12 13 11 20 24 28 29 30 32 35 36 36 36 36 35
6 6 5 4 3 4 4 3 4 4 4 5 4 4 6 6 5 5 5 5 6 8 14 18 12 10 12 10 9 9 10 10 11 24 31 32 32 33 34 35 34 33 32
6 5 5 4 4 4 4 4 4 5 5 6 6 6 7 7 6 6 6 7 9 9 10 16 16 13 13 13 11 10 10 10 11 20 28 31 32 32 32 30 31 31 32
6 5 5 5 4 4 4 4 5 5 5 6 6 6 7 8 7 7 9 9 9 8 8 11 15 14 12 10 11 12 11 11 11 17 24 26 28 30 29 30 31 31 31
6 5 5 4 4 4 5 5 5 5 5 5 6 6 7 7 9 9 9 9 8 9 10 11 13 12 10 9 10 12 13 12 12 11 15 17 23 26 28 31 31 31 30
5 4 4 4 5 5 6 7 4 3 4 6 6 7 8 12 16 15 13 12 12 11 11 10 10 9 10 11 12 12 15 13 12 9 10 10 11 12 15 21 24 27 30
4 4 4 5 6 5 10 12 10 3 4 6 7 8 9 12 14 19 24 25 22 15 12 11 11 13 13 13 13 12 13 13 15 7 9 12 11 12 12 13 23 29 31
3 4 5 5 5 6 11 14 15 4 4 7 9 9 8 9 13 12 20 22 15 18 18 15 14 15 15 14 14 14 12 13 13 11 11 13 12 13 12 14 27 31 32
3 3 4 5 5 7 13 16 16 6 6 8 10 9 10 10 12 17 15 10 9 8 12 13 12 14 14 14 14 14 15 14 14 11 10 15 15 13 13 14 25 31 32
3 3 3 5 6 7 14 17 15 5 7 9 9 9 10 10 18 26 17 12 10 10 15 19 18 21 26 25 20 12 11 12 14 13 10 13 15 15 14 13 13 23 27
2 4 5 5 6 7 13 18 15 6 7 8 7 7 12 16 23 26 18 11 11 13 11 8 12 15 16 16 20 14 11 12 13 14 11 11 13 12 12 9 8 10 13
Wind_Direction
120 105 76 66 64 62 67 55 43 41 30 15 13 16 10 355 354 355 357 13 25 20 23 21 16 10 3 17 22 25 26 21 16 18 22 21 17 3 334 303 282 281 278
110 96 76 64 59 60 59 60 53 45 33 13 4 7 5 356 7 10 8 14 25 25 25 20 14 6 7 6 1 9 9 6 359 357 5 6 354 341 336 338 329 313 302
100 94 88 75 61 58 62 56 42 42 31 11 353 345 358 356 23 21 17 18 17 24 25 21 16 10 8 359 358 356 357 352 348 348 355 349 336 330 332 334 332 327 318
104 101 96 81 64 55 52 46 29 24 22 5 333 326 350 350 29 22 30 27 14 16 18 19 18 12 6 1 359 350 353 347 343 341 337 331 327 325 321 318 316 314 311
103 99 91 80 67 51 43 37 29 26 16 352 327 317 338 325 49 24 36 27 18 13 356 7 11 6 1 357 355 345 345 338 324 319 318 317 311 309 307 304 302 300 301
102 97 88 74 65 57 39 29 26 15 12 336 319 315 327 337 358 22 26 11 359 345 314 296 295 327 349 348 350 341 338 329 322 327 321 311 307 307 307 303 299 295 293
99 96 91 79 71 70 58 37 22 19 1 343 341 331 331 340 299 302 332 313 306 272 249 247 238 227 264 329 340 335 333 325 324 324 315 311 309 309 307 304 300 297 294
97 96 93 85 81 78 58 43 34 12 358 9 5 335 342 336 344 315 321 322 344 339 336 323 311 294 259 259 313 331 329 321 319 315 312 311 310 310 307 305 302 298 294
92 92 92 89 79 72 66 52 35 45 7 354 22 29 352 315 315 306 324 341 337 326 299 292 285 281 275 274 306 320 314 309 312 312 312 312 308 306 304 301 296 292 289
91 92 89 81 75 71 66 55 51 47 53 10 341 12 302 269 302 311 309 308 313 298 275 270 267 269 275 269 279 298 297 298 307 310 312 307 305 303 299 293 289 289 289
87 86 82 79 75 72 67 55 49 49 69 93 334 319 320 297 275 288 294 305 306 290 270 251 260 277 278 277 271 273 281 300 304 309 306 305 302 298 294 292 292 292 290
83 77 79 79 75 67 60 52 48 49 48 48 358 250 252 288 296 285 291 303 301 296 288 280 274 266 265 262 286 292 292 302 307 307 303 299 297 296 295 295 294 291 289
87 83 81 74 66 62 57 46 32 15 17 359 328 297 257 236 241 267 292 302 301 301 284 277 263 281 293 303 298 295 304 309 308 304 301 299 299 297 298 298 296 293 289
108 102 86 76 67 57 45 30 15 339 344 334 312 282 252 247 239 251 279 302 308 297 295 288 272 279 297 296 303 303 306 301 301 300 298 298 297 299 300 296 293 292 290
105 93 82 75 57 42 27 13 357 337 338 317 288 268 239 244 234 244 254 266 284 300 304 299 294 299 283 282 284 292 290 289 292 294 295 295 297 297 294 292 292 288 283
93 87 80 69 50 30 16 9 350 332 337 315 284 269 256 233 242 251 252 257 255 273 284 297 299 289 279 269 280 286 283 285 287 289 289 290 292 292 291 289 287 283 282
93 89 83 68 42 24 13 7 348 328 331 318 303 288 275 261 247 252 257 259 260 262 278 291 296 295 288 287 286 277 270 266 277 284 285 287 289 287 286 285 285 286 287
96 90 78 60 35 16 9 5 338 329 326 313 304 301 291 282 265 263 270 269 264 261 272 288 296 300 296 297 293 283 278 273 267 272 278 285 289 292 291 290 291 290 288
90 76 64 47 25 5 356 338 327 322 315 306 304 301 293 287 282 279 276 274 272 273 272 280 290 296 297 298 294 289 287 280 274 275 282 288 291 292 293 293 293 290 287
82 67 57 44 16 355 342 329 325 318 322 321 309 297 292 289 284 279 279 285 295 294 287 283 283 289 297 298 296 299 298 291 288 287 284 285 288 290 291 292 291 290 289
76 65 48 25 11 355 337 323 316 326 331 310 298 295 293 297 304 308 310 309 303 296 292 291 299 303 304 305 301 299 294 296 289 292 288 287 286 283 279 280 280 282 280
66 51 26 11 1 342 325 328 329 322 307 303 297 288 282 290 298 309 310 306 306 308 313 309 303 302 302 298 294 294 293 300 302 298 292 292 287 282 278 275 276 277 279
50 35 15 360 334 321 327 331 325 314 288 290 285 284 290 297 306 296 294 299 302 309 307 303 297 290 289 290 291 294 294 292 293 301 297 290 287 280 276 272 278 280 281
33 14 347 336 330 328 331 328 323 314 285 276 276 279 286 292 291 297 305 311 301 284 288 290 286 286 288 294 296 298 298 292 287 289 287 287 289 281 280 274 276 279 281
16 337 326 336 333 317 325 330 324 298 279 275 276 278 283 286 299 314 322 315 309 301 300 302 302 305 306 307 307 304 300 298 296 297 294 284 288 289 283 273 266 274 279
345 339 334 329 316 313 323 326 321 305 288 288 280 266 287 307 316 323 325 326 317 307 306 309 309 303 302 299 304 306 300 294 296 299 299 296 295 298 294 280 279 277 277